TITAN 3C TRANSTAGE DEB, 39297

Orbit data source: Space-Track

TITAN 3C TRANSTAGE DEB, 39297 is space debris in GEO originally from a launch on Thu, 26 Sep 1968 UTC launched from the Air Force Eastern Test Range (AFETR). Debris objects in space refer to the collection of defunct objects orbiting the Earth. Examples of debris include non-operational satellites, rocket bodies, and fragments generated from explosions, collisions, or faulty payload assembly.

Not visible in the next 10 days
Identifier
39297, 1968-081AH
Orbit
GEO
Country
Flag of USUS
Related business
Manufacturer
Unknown
Mission
Spacecraft
Bus & Motor
Unknown
Mass
Unknown
Launch date (UTC)
1968-09-26 (57 years ago)
Launch vehicle
Unknown
Launch site
Air Force Eastern Test Range (AFETR)
Object type
Payload
Rocket body
Debris
Shape & HBR
Unknown shape, 1.1 m
Radar Cross Section
RCS unknown

Expand to show TLE details & history
Last TLE update: 2 days ago

TLE from 2 days ago
0 TITAN 3C TRANSTAGE DEB
1 39297U 68081AH  25351.71380874  .00000122  00000-0  00000-0 0  9992
2 39297   1.4317  12.1671 0231283 311.7304  45.8666  1.00396548 14651
Epoch: 2025-12-17T17:07Z
TLE epoch observation values (Epoch: 2025-12-17T17:07:53.075Z)
Latitude
0.00001°
Longitude
28.14373°
Altitude
35,089.394 km
Speed
3.125 km/s
True Right ascension
00h 46m 46s
True Declination
0° 00' 00"
Sunlit
Object was in daylight at epoch
Visualization orbit readout
Latitude
Unknown
Longitude
Unknown
Altitude
Unknown
Speed
Unknown
Apparent Right ascension
Unknown
Apparent Declination
Unknown
Sunlit
N/A
Visualization observer readout
Local Sidereal Time
07:11:47
Azimuth
Unknown
Elevation
Unknown
Doppler factor
Unknown
Orbital elements
Apogee altitude
36,727.142 km
Perigee altitude
34,778.311 km
Semi-major axis
42,130.864 km
Eccentricity
0.02313
Inclination
1.4317°
RAAN
12.1671°
Arg. of periapsis
311.7304°
True anomaly
47.80746°
Mean anomaly
45.8666°
Eccentric anomaly
46.83312°
Mean motion
0.25098 °/min
Orbital period
1,434.37 mins
BSTAR
0
Loading maneuver chart data...
Computing Atmospheric mass density...

Documentation

Showing up to 5 results
|